星链-31583 (STARLINK-31583 )

导读

STARLINK-31583是美国太空探索技术公司SpaceX星链互联网卫星星座的一员,于2024年3月31日发射入轨。星链计划旨在打造覆盖全球的低轨卫星互联网,为偏远地区及地面网络覆盖不足区域提供宽带互联网服务,该卫星加入星座后,进一步扩充了星链网络的服务容量与全球覆盖能力。

基本信息
目录编号:
59369
目录名称:
STARLINK-31583
国际标识:
2024-060X
轨道中心:
EARTH
卫星名称:
星链-31583
卫星全名:
星链-31583 (STARLINK-31583 )
卫星状态:
在轨 (已飞行809 天)
发射日期:
2024-03-31 UTC
国别 :
美国 (US)
星等 :
--
轨道信息
数据来源 国际轨道数据
星历时间: 2026-06-17T07:18:19+0800
1天前
查看轨道信息
半长轴: 6861.123km
偏心率: 0.0001033
轨道倾角: 43.002°
近地点辐角 267.321°
升交点赤经 48.181°
平近点角 92.752°
近地点: 482.277km
远地点: 483.695km
周期: 94.265分钟
每日圈数: 15.276011
详细信息
固有亮度:
5
最大亮度:
0.3
卫星平台:
Starlink v2.0 mini
覆盖范围:
全球
运营商:
太空探索技术公司
运营商所在国:
美国
制造商(研发单位):
太空探索技术公司
制造商所在国:
美国
使用方式:
暂无
卫星简介
星链(Starlink)计划是由太空探索技术公司(SpaceX)提出的一个巨型低轨卫星互联网星座项目,计划在2019年至2024年间在太空搭建由约1.2万颗卫星组成的“星链”网络,其中1584颗将部署在地球上空550千米处的近地轨道,并从2020年开始工作。该卫星仍在工作。
2D轨道图
3D轨道图
轨道高度分析图
轨道倾角分析图
轨道综合分析图
查看轨道综合分析图